[[{"header":{"parameterUnit":"m.s-1","parameterCategory":1,"la1":30.2992,"la2":30.254,"lo1":-89.0895,"lo2":-89.0443,"dy":0.0025,"dx":0.0025,"nx":19,"ny":19,"refTime":"2026-05-08T09:00:00:Z","depth":0,"parameterNumber":2,"parameterNumberName":"U-component_of_WINDS"},"data":[0,0,0,-1.395,-1.3951,-1.4014,-1.4014,-1.4081,-1.4081,0,0,0,0,0,0,0,0,0,0,0,-1.3922,-1.3922,-1.395,-1.3951,-1.4014,-1.4014,-1.4081,-1.4081,0,0,0,0,0,0,0,0,0,0,0,-1.3922,-1.3922,-1.3923,-1.3951,-1.4014,-1.4014,-1.408,-1.4038,0,0,0,0,0,0,0,0,0,0,-1.3979,-1.3945,-1.3922,-1.3923,-1.3951,-1.4014,-1.4014,-1.4036,-1.4041,-1.4046,0,-1.4048,0,-1.4066,-1.4085,-1.4085,0,0,0,-1.3958,-1.3942,-1.3966,-1.3923,-1.3952,-1.4013,-1.3987,-1.4039,-1.4044,-1.4052,-1.4049,-1.4052,-1.4067,-1.4085,-1.4085,-1.4093,-1.4093,0,0,-1.3954,-1.3929,-1.3963,-1.3969,-1.3958,-1.3985,-1.3989,-1.4042,-1.4038,-1.405,-1.4054,-1.4068,-1.4085,-1.4086,-1.4093,-1.4093,0,0,0,-1.394,-1.3926,-1.395,-1.3966,-1.3978,-1.3987,-1.3991,-1.4036,-1.4045,-1.4055,-1.4069,-1.4086,-1.4086,-1.4094,-1.4093,-1.4054,0,0,0,-1.3938,-1.3918,-1.3948,-1.3933,-1.3977,-1.4008,-1.3983,-1.4042,-1.4049,-1.4068,-1.4086,-1.4087,-1.4094,-1.4093,-1.4056,-1.4039,0,0,0,-1.3921,-1.3916,-1.3922,-1.3932,-1.3958,-1.4007,-1.4021,-1.4044,-1.4057,-1.4085,-1.4087,-1.4094,-1.4093,-1.4057,-1.4042,-1.4033,0,0,0,-1.3896,-1.3887,-1.3921,-1.3916,-1.3957,-1.3983,-1.4021,-1.4041,-1.4061,-1.4086,-1.4094,-1.4093,-1.4058,-1.4044,-1.4035,-1.402,-1.4012,0,0,-1.387,-1.3883,-1.3882,-1.3914,-1.3927,-1.3975,-1.3983,-1.4025,-1.4051,-1.4078,-1.4078,-1.4055,-1.4042,-1.4033,-1.3978,-1.3971,0,0,0,-1.3865,-1.3864,-1.3873,-1.389,-1.3922,-1.3948,-1.3992,-1.4008,-1.4031,-1.406,-1.4051,-1.4044,-1.404,-1.4034,-1.4029,-1.4026,-1.409,-1.409,-1.409,-1.3792,-1.3826,-1.3826,-1.3867,-1.3884,-1.3929,-1.3945,-1.3974,-1.4004,-1.4002,-1.4009,-1.3971,-1.3963,-1.3959,-1.3956,-1.4005,-1.4005,-1.4005,-1.4005,-1.3756,-1.3759,-1.3799,-1.3813,-1.3849,-1.3862,-1.3906,-1.3926,-1.3944,-1.3968,-1.3966,-1.3989,-1.3951,-1.395,-1.4002,-1.4003,-1.4003,-1.4003,-1.4004,-1.3711,-1.3718,-1.3737,-1.3766,-1.3784,-1.3827,-1.3841,-1.3874,-1.3905,-1.3903,-1.3914,-1.3915,-1.3919,-1.3906,-1.3906,-1.3906,-1.3906,-1.3906,-1.3906,-1.3655,-1.3678,-1.3686,-1.3719,-1.3734,-1.3759,-1.3804,-1.3821,-1.3847,-1.387,-1.387,-1.3899,-1.3941,-1.395,-1.3904,-1.3904,-1.3904,-1.3904,-1.3905,-1.3605,-1.3621,-1.3633,-1.3648,-1.369,-1.3705,-1.3747,-1.3777,-1.3796,-1.3801,-1.3832,-1.3858,-1.3873,-1.3878,-1.3886,-1.3825,-1.3825,-1.3825,-1.3825,-1.3565,-1.3576,-1.3596,-1.3617,-1.3643,-1.3682,-1.3695,-1.373,-1.377,-1.3783,-1.3797,-1.3811,-1.3814,-1.3828,-1.3833,-1.3841,-1.377,-1.377,-1.377,-1.3535,-1.355,-1.3554,-1.3592,-1.3627,-1.3657,-1.3669,-1.3693,-1.3742,-1.3769,-1.3794,-1.3797,-1.3819,-1.3825,-1.385,-1.3858,-1.3873,0,0]},{"header":{"parameterUnit":"m.s-1","parameterCategory":1,"la1":30.2992,"la2":30.254,"lo1":-89.0895,"lo2":-89.0443,"dy":0.0025,"dx":0.0025,"nx":19,"ny":19,"refTime":"2026-05-08T09:00:00:Z","depth":0,"parameterNumber":3,"parameterNumberName":"V-component_of_WINDS"},"data":[0,0,0,4.7227,4.7232,4.7497,4.7498,4.7828,4.783,0,0,0,0,0,0,0,0,0,0,0,4.7143,4.7146,4.7226,4.7233,4.7497,4.7498,4.7827,4.7831,0,0,0,0,0,0,0,0,0,0,0,4.7142,4.7145,4.7148,4.7234,4.7497,4.7498,4.7826,4.763,0,0,0,0,0,0,0,0,0,0,4.7374,4.7293,4.7144,4.7148,4.7235,4.7497,4.7498,4.7621,4.7642,4.7704,0,4.7758,0,4.78,4.7852,4.7853,0,0,0,4.7236,4.7275,4.7351,4.7148,4.7238,4.7496,4.7379,4.7633,4.7657,4.7733,4.7763,4.7776,4.7805,4.7854,4.7856,4.8204,4.8206,0,0,4.7222,4.7188,4.7334,4.7366,4.7326,4.737,4.7387,4.7648,4.7678,4.7764,4.7784,4.7811,4.7856,4.7859,4.8203,4.8205,0,0,0,4.7177,4.7178,4.7248,4.7352,4.7401,4.7378,4.7397,4.7667,4.7692,4.7787,4.7815,4.7858,4.7862,4.8202,4.8204,4.8245,0,0,0,4.7169,4.7152,4.7241,4.7223,4.7396,4.7537,4.741,4.7674,4.7705,4.7813,4.7858,4.7865,4.82,4.8203,4.824,4.8269,0,0,0,4.7128,4.7147,4.7184,4.7221,4.7334,4.7534,4.7575,4.7682,4.7722,4.7853,4.7866,4.8199,4.8202,4.8236,4.8263,4.8352,0,0,0,4.7074,4.7215,4.7184,4.7352,4.7331,4.7557,4.7573,4.7743,4.7861,4.786,4.82,4.8203,4.8235,4.8259,4.8348,4.8422,4.8449,0,0,4.7234,4.7233,4.7335,4.7315,4.7538,4.7519,4.7749,4.7888,4.7931,4.8111,4.812,4.8242,4.8262,4.8351,4.8615,4.8637,0,0,0,4.7374,4.7447,4.7514,4.7625,4.7736,4.7833,4.7941,4.7993,4.8147,4.8017,4.8299,4.8312,4.8366,4.8403,4.8421,4.847,4.8219,4.8219,4.8218,4.7551,4.7599,4.7771,4.7852,4.796,4.8071,4.8163,4.8251,4.8267,4.8333,4.8387,4.8541,4.8583,4.8597,4.8647,4.8429,4.843,4.843,4.843,4.7789,4.79,4.792,4.8094,4.8144,4.829,4.8403,4.841,4.8553,4.8504,4.8554,4.8496,4.8619,4.8666,4.8434,4.8433,4.8432,4.8432,4.8432,4.7911,4.7972,4.8034,4.8201,4.8325,4.8401,4.8539,4.858,4.8619,4.8668,4.8729,4.8729,4.8734,4.8694,4.8695,4.8695,4.8696,4.8696,4.8697,4.8012,4.808,4.8192,4.8323,4.84,4.8508,4.8622,4.8699,4.8796,4.8814,4.8815,4.8825,4.8623,4.8571,4.8705,4.8704,4.8702,4.8702,4.8701,4.8236,4.8192,4.8364,4.8442,4.86,4.8721,4.8771,4.8926,4.8996,4.9063,4.9063,4.8907,4.8909,4.8895,4.8853,4.9052,4.9052,4.9052,4.9052,4.8339,4.8344,4.853,4.8653,4.8777,4.8841,4.9035,4.9125,4.9211,4.9258,4.9235,4.9182,4.9166,4.9178,4.9158,4.9119,4.9381,4.9382,4.9382,4.8479,4.8499,4.8656,4.8741,4.8868,4.8975,4.9159,4.9299,4.9388,4.9396,4.9296,4.9282,4.9197,4.9167,4.9172,4.9139,4.9069,0,0]}]]